THY4KY SBGR-LTFM

Flight info

Callsign THY4KY
Flight time N/A
Altitude 31000
Route UREMI UZ42 CXI UL340 VUPIP UL206 BUGAT/N0474F330 UL206 KODOS DCT 05N024W DCT TURUP/N0466F350 UA302 ANITI UR975 ARDAR UA854 BRENA UN854 TIO/N0450F370 UN854 GHA UG864 TBS UR783 BASMO/N0446F380 DCT ARFOL DCT DINOB/N0444F370 DCT PEREN UN644 DIGTI UT162 DRAMO
Aircraft B763/H-SDE3FGHIM3RWXY/LB1

Departure

Time 2026-05-05 21:32
Airport São Paulo/Guarulhos–Governor André Franco Montoro International Airport (SBGR)

Arrival

Time N/A
Airport İstanbul Airport (LTFM)
Time Latitude Longitude Altitude Speed Heading
2026-05-05 20:55 -23.42829 -46.47400 2448 ft 0 kts 73°
2026-05-05 21:20 -23.42833 -46.47409 2447 ft 2 kts 63°
2026-05-05 21:21 -23.42838 -46.47423 2448 ft 2 kts 76°
2026-05-05 21:21 -23.42840 -46.47439 2448 ft 2 kts 89°
2026-05-05 21:21 -23.42839 -46.47455 2448 ft 2 kts 101°
2026-05-05 21:21 -23.42835 -46.47470 2447 ft 2 kts 112°
2026-05-05 21:22 -23.42829 -46.47484 2447 ft 2 kts 124°
2026-05-05 21:22 -23.42819 -46.47497 2447 ft 2 kts 135°
2026-05-05 21:22 -23.42808 -46.47507 2447 ft 2 kts 147°
2026-05-05 21:22 -23.42794 -46.47514 2447 ft 2 kts 159°
2026-05-05 21:23 -23.42788 -46.47517 2447 ft 0 kts 163°
2026-05-05 21:26 -23.42790 -46.47516 2447 ft 0 kts 163°
2026-05-05 21:27 -23.42801 -46.47513 2447 ft 3 kts 163°
2026-05-05 21:27 -23.42851 -46.47497 2448 ft 9 kts 163°
2026-05-05 21:27 -23.42918 -46.47489 2449 ft 9 kts 211°
2026-05-05 21:27 -23.42961 -46.47565 2449 ft 13 kts 253°
2026-05-05 21:28 -23.42986 -46.47664 2450 ft 13 kts 253°
2026-05-05 21:28 -23.43015 -46.47771 2450 ft 17 kts 253°
2026-05-05 21:28 -23.43055 -46.47917 2450 ft 22 kts 253°
2026-05-05 21:28 -23.43099 -46.48079 2450 ft 21 kts 253°
2026-05-05 21:29 -23.43137 -46.48217 2449 ft 17 kts 253°
2026-05-05 21:29 -23.43167 -46.48330 2449 ft 13 kts 253°
2026-05-05 21:29 -23.43230 -46.48385 2449 ft 12 kts 174°
2026-05-05 21:29 -23.43312 -46.48363 2451 ft 11 kts 164°
2026-05-05 21:30 -23.43389 -46.48338 2453 ft 11 kts 157°
2026-05-05 21:30 -23.43412 -46.48282 2455 ft 6 kts 81°
2026-05-05 21:30 -23.43405 -46.48248 2455 ft 0 kts 74°
2026-05-05 21:31 -23.43399 -46.48226 2455 ft 17 kts 74°
2026-05-05 21:31 -23.43304 -46.47875 2455 ft 80 kts 73°
2026-05-05 21:32 -23.43088 -46.47075 2454 ft 137 kts 73°
2026-05-05 21:32 -23.42773 -46.45910 2460 ft 185 kts 73°
2026-05-05 21:32 -23.42383 -46.44452 2703 ft 210 kts 73°
2026-05-05 21:32 -23.41954 -46.42935 3478 ft 211 kts 72°
2026-05-05 21:33 -23.41505 -46.41384 3959 ft 225 kts 72°
2026-05-05 21:33 -23.40996 -46.39698 4341 ft 243 kts 71°
2026-05-05 21:33 -23.40448 -46.37868 4742 ft 264 kts 73°
2026-05-05 21:33 -23.40259 -46.35912 5466 ft 269 kts 99°
2026-05-05 21:34 -23.40788 -46.33928 6167 ft 277 kts 108°
2026-05-05 21:34 -23.41406 -46.31957 7012 ft 279 kts 108°
2026-05-05 21:34 -23.42038 -46.29962 7808 ft 281 kts 109°
2026-05-05 21:34 -23.42684 -46.27956 8569 ft 286 kts 109°
2026-05-05 21:35 -23.43351 -46.25898 9356 ft 289 kts 109°
2026-05-05 21:35 -23.43916 -46.23822 10115 ft 292 kts 101°
2026-05-05 21:35 -23.44297 -46.21614 10632 ft 305 kts 101°
2026-05-05 21:35 -23.44720 -46.19224 10679 ft 336 kts 101°
2026-05-05 21:36 -23.45166 -46.16674 11067 ft 352 kts 100°
2026-05-05 21:36 -23.45625 -46.14047 11742 ft 360 kts 100°
2026-05-05 21:36 -23.46079 -46.11433 12970 ft 347 kts 100°
2026-05-05 21:36 -23.46528 -46.08847 13693 ft 351 kts 100°
2026-05-05 21:37 -23.46978 -46.06243 14315 ft 356 kts 101°
2026-05-05 21:37 -23.47439 -46.03579 14998 ft 359 kts 101°
2026-05-05 21:37 -23.47905 -46.00884 15589 ft 364 kts 101°
2026-05-05 21:37 -23.48375 -45.98161 16210 ft 368 kts 101°
2026-05-05 21:38 -23.48842 -45.95406 16820 ft 371 kts 98°
2026-05-05 21:38 -23.48924 -45.92577 17251 ft 380 kts 83°
2026-05-05 21:38 -23.48344 -45.89756 17754 ft 386 kts 75°
2026-05-05 21:38 -23.47656 -45.86932 18332 ft 389 kts 76°
2026-05-05 21:39 -23.46967 -45.84100 18866 ft 394 kts 76°
2026-05-05 21:39 -23.46260 -45.81190 19420 ft 398 kts 76°
2026-05-05 21:39 -23.45541 -45.78251 19999 ft 400 kts 76°
2026-05-05 21:39 -23.44827 -45.75338 20491 ft 405 kts 76°
2026-05-05 21:40 -23.44097 -45.72362 21032 ft 408 kts 76°
2026-05-05 21:40 -23.43361 -45.69366 21528 ft 411 kts 76°
2026-05-05 21:40 -23.42610 -45.66312 21994 ft 416 kts 76°
2026-05-05 21:40 -23.41868 -45.63296 22460 ft 419 kts 76°
2026-05-05 21:41 -23.41103 -45.60192 22914 ft 423 kts 76°
2026-05-05 21:41 -23.40331 -45.57059 23367 ft 427 kts 76°
2026-05-05 21:41 -23.39557 -45.53925 23846 ft 430 kts 76°
2026-05-05 21:41 -23.38782 -45.50750 24281 ft 434 kts 78°
2026-05-05 21:42 -23.38106 -45.47536 24702 ft 437 kts 78°
2026-05-05 21:42 -23.37417 -45.44311 25091 ft 441 kts 79°
2026-05-05 21:42 -23.36718 -45.41023 25552 ft 443 kts 78°
2026-05-05 21:42 -23.36024 -45.37769 25955 ft 445 kts 79°
2026-05-05 21:43 -23.35311 -45.34435 26317 ft 449 kts 78°
2026-05-05 21:43 -23.34603 -45.31127 26678 ft 451 kts 78°
2026-05-05 21:43 -23.33892 -45.27807 27053 ft 453 kts 78°
2026-05-05 21:43 -23.33169 -45.24437 27370 ft 456 kts 78°
2026-05-05 21:44 -23.32444 -45.21061 27700 ft 458 kts 78°
2026-05-05 21:44 -23.31712 -45.17658 27993 ft 461 kts 78°
2026-05-05 21:44 -23.30984 -45.14276 28322 ft 463 kts 78°
2026-05-05 21:44 -23.30248 -45.10861 28574 ft 466 kts 78°
2026-05-05 21:45 -23.29494 -45.07368 28880 ft 468 kts 78°
2026-05-05 21:45 -23.28750 -45.03922 29169 ft 470 kts 78°
2026-05-05 21:45 -23.28001 -45.00461 29386 ft 473 kts 78°
2026-05-05 21:45 -23.27243 -44.96961 29709 ft 474 kts 78°
2026-05-05 21:46 -23.26484 -44.93454 29982 ft 475 kts 78°
2026-05-05 21:46 -23.25723 -44.89951 30196 ft 478 kts 78°
2026-05-05 21:46 -23.24957 -44.86422 30467 ft 478 kts 79°
2026-05-05 21:46 -23.24179 -44.82845 30633 ft 482 kts 79°
2026-05-05 21:47 -23.23412 -44.79324 30950 ft 481 kts 79°
2026-05-05 21:47 -23.22637 -44.75770 31198 ft 481 kts 79°
2026-05-05 21:47 -23.21081 -44.68641 31207 ft 480 kts 79°
2026-05-05 21:48 -23.19546 -44.61627 31194 ft 476 kts 79°
2026-05-05 21:48 -23.18007 -44.54615 31184 ft 477 kts 79°
2026-05-05 21:49 -23.16466 -44.47607 31168 ft 478 kts 79°
2026-05-05 21:49 -23.14923 -44.40602 31165 ft 477 kts 79°
2026-05-05 21:50 -23.13375 -44.33594 31164 ft 477 kts 78°
2026-05-05 21:50 -23.11824 -44.26587 31155 ft 477 kts 78°
2026-05-05 21:51 -23.10275 -44.19604 31161 ft 477 kts 78°
2026-05-05 21:51 -23.08723 -44.12623 31158 ft 478 kts 78°
2026-05-05 21:52 -23.06394 -44.02174 31160 ft 477 kts 78°
2026-05-05 21:53 -23.04826 -43.95160 31157 ft 476 kts 78°
2026-05-05 21:53 -23.03270 -43.88213 31152 ft 477 kts 78°
2026-05-05 21:54 -23.01698 -43.81215 31157 ft 477 kts 78°
2026-05-05 21:54 -23.00135 -43.74269 31154 ft 476 kts 78°
2026-05-05 21:55 -22.97994 -43.67445 31174 ft 479 kts 69°
2026-05-05 21:55 -22.95423 -43.60807 31168 ft 479 kts 69°
2026-05-05 21:56 -22.92819 -43.54165 31156 ft 479 kts 69°
2026-05-05 21:56 -22.90201 -43.47516 31157 ft 479 kts 69°
2026-05-05 21:57 -22.87584 -43.40884 31155 ft 479 kts 69°
2026-05-05 21:57 -22.84963 -43.34253 31143 ft 480 kts 68°
2026-05-05 21:58 -22.82570 -43.27646 31134 ft 477 kts 78°
2026-05-05 21:58 -22.81558 -43.20592 31143 ft 477 kts 80°
2026-05-05 21:59 -22.79302 -43.13821 31153 ft 482 kts 61°
2026-05-05 21:59 -22.75185 -43.08116 31148 ft 483 kts 42°
2026-05-05 22:00 -22.69916 -43.03653 31153 ft 483 kts 42°
2026-05-05 22:00 -22.65180 -42.98479 31146 ft 484 kts 49°
2026-05-05 22:01 -22.60737 -42.93036 31157 ft 482 kts 50°
2026-05-05 22:01 -22.56376 -42.87525 31165 ft 483 kts 50°
2026-05-05 22:02 -22.52030 -42.81987 31166 ft 483 kts 51°
2026-05-05 22:02 -22.47687 -42.76444 31177 ft 483 kts 51°
2026-05-05 22:03 -22.43343 -42.70904 31206 ft 482 kts 51°
2026-05-05 22:03 -22.39022 -42.65396 31224 ft 482 kts 51°
2026-05-05 22:04 -22.34667 -42.59851 31238 ft 482 kts 51°
2026-05-05 22:04 -22.30332 -42.54338 31251 ft 483 kts 51°
2026-05-05 22:05 -22.25969 -42.48795 31271 ft 482 kts 51°
2026-05-05 22:05 -22.21627 -42.43284 31274 ft 482 kts 51°
2026-05-05 22:06 -22.17284 -42.37778 31279 ft 482 kts 51°
2026-05-05 22:06 -22.12927 -42.32259 31268 ft 483 kts 50°
2026-05-05 22:07 -22.08580 -42.26760 31256 ft 483 kts 50°
2026-05-05 22:07 -22.04208 -42.21233 31238 ft 482 kts 50°
2026-05-05 22:08 -21.99863 -42.15748 31234 ft 481 kts 50°
2026-05-05 22:08 -21.95510 -42.10258 31236 ft 481 kts 50°
2026-05-05 22:09 -21.91178 -42.04799 31236 ft 480 kts 50°
2026-05-05 22:09 -21.86826 -41.99320 31227 ft 480 kts 50°
2026-05-05 22:10 -21.82469 -41.93842 31225 ft 481 kts 50°
2026-05-05 22:10 -21.78144 -41.88410 31229 ft 480 kts 50°
2026-05-05 22:11 -21.73779 -41.82932 31242 ft 481 kts 50°
2026-05-05 22:11 -21.69453 -41.77510 31249 ft 480 kts 50°
2026-05-05 22:12 -21.65107 -41.72067 31238 ft 479 kts 50°
2026-05-05 22:12 -21.60754 -41.66621 31218 ft 479 kts 50°
2026-05-05 22:13 -21.56432 -41.61219 31200 ft 478 kts 50°
2026-05-05 22:13 -21.52093 -41.55801 31197 ft 478 kts 50°
2026-05-05 22:14 -21.47740 -41.50372 31187 ft 479 kts 50°
2026-05-05 22:14 -21.43382 -41.44943 31185 ft 478 kts 50°
2026-05-05 22:15 -21.39043 -41.39541 31185 ft 477 kts 50°
2026-05-05 22:15 -21.34687 -41.34123 31179 ft 477 kts 50°
2026-05-05 22:16 -21.30342 -41.28726 31177 ft 477 kts 50°
2026-05-05 22:16 -21.26007 -41.23345 31176 ft 476 kts 50°
2026-05-05 22:17 -21.21666 -41.17964 31179 ft 476 kts 49°
2026-05-05 22:17 -21.17343 -41.12609 31181 ft 477 kts 49°
2026-05-05 22:18 -21.12996 -41.07229 31185 ft 478 kts 49°
2026-05-05 22:18 -21.08649 -41.01855 31185 ft 478 kts 49°
2026-05-05 22:19 -21.04295 -40.96478 31177 ft 475 kts 49°
2026-05-05 22:19 -20.99989 -40.91164 31178 ft 474 kts 49°
2026-05-05 22:20 -20.95670 -40.85841 31177 ft 475 kts 49°
2026-05-05 22:20 -20.91332 -40.80498 31182 ft 476 kts 49°
2026-05-05 22:21 -20.87000 -40.75169 31184 ft 475 kts 49°
2026-05-05 22:21 -20.82664 -40.69850 31188 ft 475 kts 47°
2026-05-05 22:22 -20.77556 -40.65335 31202 ft 475 kts 34°
2026-05-05 22:22 -20.72119 -40.61358 31190 ft 475 kts 34°
2026-05-05 22:23 -20.66611 -40.57400 31192 ft 474 kts 33°
2026-05-05 22:23 -20.61114 -40.53472 31191 ft 474 kts 33°
2026-05-05 22:24 -20.55639 -40.49569 31193 ft 474 kts 33°
2026-05-05 22:24 -20.50159 -40.45667 31189 ft 474 kts 33°
2026-05-05 22:25 -20.44655 -40.41752 31191 ft 473 kts 33°
2026-05-05 22:25 -20.39169 -40.37853 31190 ft 474 kts 33°
2026-05-05 22:26 -20.33695 -40.33965 31187 ft 474 kts 33°
2026-05-05 22:26 -20.28206 -40.30071 31184 ft 473 kts 33°
2026-05-05 22:27 -20.22706 -40.26208 31182 ft 473 kts 32°
2026-05-05 22:27 -20.17182 -40.22357 31176 ft 473 kts 32°
2026-05-05 22:28 -20.11670 -40.18517 31179 ft 473 kts 32°
2026-05-05 22:28 -20.06179 -40.14695 31183 ft 473 kts 32°
2026-05-05 22:29 -20.00655 -40.10853 31182 ft 474 kts 32°
2026-05-05 22:29 -19.95153 -40.07030 31178 ft 473 kts 32°
2026-05-05 22:30 -19.89608 -40.03180 31175 ft 474 kts 32°
2026-05-05 22:30 -19.84096 -39.99356 31168 ft 473 kts 32°
2026-05-05 22:31 -19.78570 -39.95526 31164 ft 473 kts 32°
2026-05-05 22:31 -19.73078 -39.91723 31163 ft 473 kts 32°
2026-05-05 22:32 -19.67560 -39.87891 31160 ft 473 kts 33°
2026-05-05 22:32 -19.62095 -39.84058 31165 ft 473 kts 33°
2026-05-05 22:33 -19.56576 -39.80193 31160 ft 474 kts 33°
2026-05-05 22:33 -19.51070 -39.76340 31157 ft 474 kts 33°
2026-05-05 22:34 -19.45556 -39.72485 31155 ft 474 kts 32°
2026-05-05 22:34 -19.40048 -39.68637 31155 ft 473 kts 33°
2026-05-05 22:35 -19.34544 -39.64795 31156 ft 474 kts 32°
2026-05-05 22:35 -19.29061 -39.60972 31157 ft 475 kts 32°
2026-05-05 22:36 -19.23525 -39.57113 31152 ft 474 kts 32°
2026-05-05 22:36 -19.18031 -39.53288 31150 ft 474 kts 32°
2026-05-05 22:37 -19.12514 -39.49450 31152 ft 475 kts 32°
2026-05-05 22:37 -19.06994 -39.45612 31148 ft 474 kts 32°
2026-05-05 22:38 -19.01471 -39.41776 31147 ft 474 kts 32°
2026-05-05 22:38 -18.95931 -39.37931 31144 ft 474 kts 32°
2026-05-05 22:39 -18.90425 -39.34113 31139 ft 475 kts 32°
2026-05-05 22:39 -18.84876 -39.30268 31134 ft 475 kts 32°
2026-05-05 22:40 -18.79340 -39.26435 31138 ft 476 kts 32°
2026-05-05 22:40 -18.73809 -39.22608 31128 ft 475 kts 32°
2026-05-05 22:41 -18.68265 -39.18776 31133 ft 475 kts 31°
2026-05-05 22:41 -18.62725 -39.14949 31130 ft 476 kts 31°
2026-05-05 22:42 -18.57220 -39.11149 31133 ft 475 kts 31°
2026-05-05 22:42 -18.51662 -39.07317 31133 ft 475 kts 31°
2026-05-05 22:43 -18.46136 -39.03508 31129 ft 476 kts 31°
2026-05-05 22:43 -18.40595 -38.99663 31133 ft 477 kts 32°
2026-05-05 22:44 -18.35081 -38.95785 31133 ft 476 kts 32°
2026-05-05 22:44 -18.29592 -38.91930 31130 ft 475 kts 31°
2026-05-05 22:45 -18.24090 -38.88070 31129 ft 476 kts 31°
2026-05-05 22:45 -18.18591 -38.84214 31131 ft 476 kts 31°
2026-05-05 22:46 -18.13050 -38.80333 31129 ft 475 kts 31°
2026-05-05 22:46 -18.07569 -38.76495 31130 ft 475 kts 31°
2026-05-05 22:47 -18.02051 -38.72635 31125 ft 476 kts 31°
2026-05-05 22:47 -17.96519 -38.68769 31127 ft 476 kts 31°
2026-05-05 22:48 -17.91004 -38.64917 31123 ft 475 kts 31°
2026-05-05 22:48 -17.85523 -38.61091 31124 ft 474 kts 31°
2026-05-05 22:49 -17.80006 -38.57244 31127 ft 475 kts 31°
2026-05-05 22:49 -17.74509 -38.53414 31121 ft 475 kts 31°
2026-05-05 22:50 -17.68989 -38.49570 31123 ft 474 kts 31°
2026-05-05 22:50 -17.63483 -38.45738 31122 ft 475 kts 31°
2026-05-05 22:51 -17.57981 -38.41913 31120 ft 475 kts 31°
2026-05-05 22:51 -17.52484 -38.38093 31122 ft 474 kts 31°
2026-05-05 22:52 -17.46975 -38.34269 31113 ft 474 kts 30°
2026-05-05 22:52 -17.41504 -38.30473 31112 ft 473 kts 30°
2026-05-05 22:53 -17.35988 -38.26649 31111 ft 473 kts 30°
2026-05-05 22:53 -17.30503 -38.22850 31111 ft 474 kts 30°
2026-05-05 22:54 -17.25017 -38.19052 31110 ft 473 kts 30°
2026-05-05 22:54 -17.19509 -38.15242 31109 ft 473 kts 30°
2026-05-05 22:55 -17.14016 -38.11445 31110 ft 472 kts 30°
2026-05-05 22:55 -17.08550 -38.07669 31104 ft 471 kts 30°
2026-05-05 22:56 -17.03053 -38.03875 31110 ft 471 kts 30°
2026-05-05 22:56 -16.97604 -38.00117 31109 ft 472 kts 30°
2026-05-05 22:57 -16.92083 -37.96311 31109 ft 472 kts 30°
2026-05-05 22:57 -16.86600 -37.92534 31108 ft 472 kts 30°
2026-05-05 22:58 -16.81131 -37.88770 31106 ft 471 kts 30°
2026-05-05 22:58 -16.75660 -37.85007 31106 ft 469 kts 30°
2026-05-05 22:59 -16.70217 -37.81266 31103 ft 470 kts 30°
2026-05-05 22:59 -16.64722 -37.77492 31100 ft 470 kts 30°
2026-05-05 23:00 -16.56559 -37.71890 31103 ft 469 kts 30°
2026-05-05 23:00 -16.51090 -37.68140 31102 ft 469 kts 30°
2026-05-05 23:01 -16.45621 -37.64393 31099 ft 468 kts 30°
2026-05-05 23:01 -16.40203 -37.60683 31097 ft 468 kts 30°
2026-05-05 23:02 -16.34759 -37.56958 31101 ft 469 kts 30°
2026-05-05 23:02 -16.29289 -37.53218 31098 ft 468 kts 30°
2026-05-05 23:03 -16.23854 -37.49504 31097 ft 467 kts 30°
2026-05-05 23:03 -16.18412 -37.45787 31095 ft 467 kts 30°
2026-05-05 23:04 -16.13001 -37.42095 31095 ft 467 kts 30°
2026-05-05 23:04 -16.07559 -37.38341 31095 ft 466 kts 30°
2026-05-05 23:05 -16.02168 -37.34619 31097 ft 466 kts 30°
2026-05-05 23:05 -15.96744 -37.30875 31086 ft 466 kts 30°
2026-05-05 23:06 -15.91357 -37.27161 31087 ft 465 kts 30°
2026-05-05 23:06 -15.85964 -37.23445 31089 ft 466 kts 30°
2026-05-05 23:07 -15.80572 -37.19732 31088 ft 466 kts 30°
2026-05-05 23:07 -15.75134 -37.15989 31091 ft 465 kts 30°
2026-05-05 23:08 -15.69752 -37.12288 31092 ft 466 kts 30°
2026-05-05 23:08 -15.64358 -37.08581 31090 ft 465 kts 30°
2026-05-05 23:09 -15.58950 -37.04866 31089 ft 464 kts 30°
2026-05-05 23:09 -15.53546 -37.01157 31089 ft 464 kts 30°
2026-05-05 23:10 -15.48178 -36.97475 31089 ft 464 kts 30°
2026-05-05 23:10 -15.42794 -36.93783 31089 ft 463 kts 30°
2026-05-05 23:11 -15.37426 -36.90106 31089 ft 463 kts 30°
2026-05-05 23:11 -15.32032 -36.86413 31092 ft 463 kts 30°
2026-05-05 23:12 -15.26658 -36.82736 31090 ft 463 kts 30°
2026-05-05 23:12 -15.21272 -36.79053 31090 ft 463 kts 30°
2026-05-05 23:13 -15.15871 -36.75362 31094 ft 464 kts 30°
2026-05-05 23:13 -15.10505 -36.71697 31091 ft 464 kts 30°
2026-05-05 23:14 -15.05123 -36.68023 31090 ft 462 kts 30°
2026-05-05 23:14 -14.99738 -36.64350 31091 ft 462 kts 29°
2026-05-05 23:15 -14.94366 -36.60688 31090 ft 463 kts 30°
2026-05-05 23:15 -14.88961 -36.57006 31088 ft 462 kts 30°
2026-05-05 23:16 -14.83590 -36.53349 31093 ft 462 kts 30°
2026-05-05 23:16 -14.78251 -36.49715 31089 ft 461 kts 30°
2026-05-05 23:17 -14.72868 -36.46055 31089 ft 461 kts 30°
2026-05-05 23:17 -14.67498 -36.42405 31088 ft 461 kts 30°
2026-05-05 23:18 -14.62137 -36.38764 31087 ft 462 kts 30°
2026-05-05 23:18 -14.56776 -36.35125 31086 ft 462 kts 30°
2026-05-05 23:19 -14.51398 -36.31475 31078 ft 461 kts 29°
2026-05-05 23:19 -14.46040 -36.27842 31078 ft 460 kts 30°
2026-05-05 23:20 -14.40666 -36.24201 31077 ft 461 kts 30°
2026-05-05 23:20 -14.35315 -36.20577 31075 ft 460 kts 30°
2026-05-05 23:21 -14.29973 -36.16961 31075 ft 460 kts 30°
2026-05-05 23:21 -14.24608 -36.13332 31073 ft 460 kts 30°
2026-05-05 23:22 -14.19264 -36.09719 31073 ft 460 kts 30°
2026-05-05 23:22 -14.13904 -36.06097 31070 ft 460 kts 30°
2026-05-05 23:23 -14.08558 -36.02487 31070 ft 459 kts 30°
2026-05-05 23:23 -14.03208 -35.98876 31068 ft 459 kts 30°
2026-05-05 23:24 -13.97849 -35.95261 31068 ft 460 kts 30°
2026-05-05 23:24 -13.92488 -35.91647 31070 ft 460 kts 30°
2026-05-05 23:25 -13.87127 -35.88035 31071 ft 460 kts 30°
2026-05-05 23:25 -13.81737 -35.84405 31072 ft 460 kts 30°
2026-05-05 23:26 -13.76385 -35.80803 31071 ft 459 kts 30°
2026-05-05 23:26 -13.71055 -35.77217 31071 ft 459 kts 30°
2026-05-05 23:27 -13.65714 -35.73627 31073 ft 459 kts 30°
2026-05-05 23:27 -13.60354 -35.70026 31072 ft 459 kts 30°
2026-05-05 23:28 -13.55014 -35.66440 31071 ft 458 kts 30°
2026-05-05 23:28 -13.49672 -35.62854 31070 ft 458 kts 30°
2026-05-05 23:29 -13.44359 -35.59290 31071 ft 459 kts 30°
2026-05-05 23:29 -13.38998 -35.55695 31069 ft 458 kts 30°
2026-05-05 23:30 -13.33670 -35.52125 31071 ft 458 kts 30°
2026-05-05 23:30 -13.28329 -35.48548 31070 ft 458 kts 30°
2026-05-05 23:31 -13.22989 -35.44972 31070 ft 458 kts 30°
2026-05-05 23:31 -13.17646 -35.41398 31071 ft 457 kts 30°
2026-05-05 23:32 -13.12312 -35.37830 31075 ft 457 kts 30°
2026-05-05 23:32 -13.06987 -35.34271 31069 ft 457 kts 29°
2026-05-05 23:33 -13.01680 -35.30724 31063 ft 456 kts 29°
2026-05-05 23:33 -12.96363 -35.27174 31070 ft 456 kts 29°
2026-05-05 23:34 -12.91021 -35.23609 31062 ft 456 kts 30°
2026-05-05 23:34 -12.85722 -35.20074 31066 ft 456 kts 29°
2026-05-05 23:35 -12.80406 -35.16530 31065 ft 455 kts 29°
2026-05-05 23:35 -12.75089 -35.12987 31065 ft 454 kts 29°
2026-05-05 23:36 -12.69776 -35.09449 31061 ft 455 kts 30°
2026-05-05 23:36 -12.64472 -35.05918 31062 ft 454 kts 29°
2026-05-05 23:37 -12.59173 -35.02392 31059 ft 454 kts 30°
2026-05-05 23:37 -12.53863 -34.98860 31052 ft 454 kts 30°
2026-05-05 23:38 -12.48566 -34.95340 31056 ft 453 kts 30°
2026-05-05 23:38 -12.43285 -34.91831 31057 ft 453 kts 30°
2026-05-05 23:39 -12.37965 -34.88299 31056 ft 454 kts 30°
2026-05-05 23:39 -12.32692 -34.84799 31052 ft 453 kts 30°
2026-05-05 23:40 -12.27384 -34.81277 31052 ft 453 kts 30°
2026-05-05 23:40 -12.22085 -34.77764 31054 ft 454 kts 30°
2026-05-05 23:41 -12.16818 -34.74273 31051 ft 451 kts 30°
2026-05-05 23:41 -12.11528 -34.70769 31050 ft 451 kts 30°
2026-05-05 23:42 -12.06271 -34.67288 31046 ft 451 kts 30°
2026-05-05 23:42 -12.01004 -34.63803 31046 ft 451 kts 30°
2026-05-05 23:43 -11.95704 -34.60297 31047 ft 453 kts 30°
2026-05-05 23:43 -11.90411 -34.56797 31048 ft 452 kts 30°
2026-05-05 23:44 -11.85104 -34.53290 31055 ft 452 kts 30°
2026-05-05 23:44 -11.79834 -34.49808 31052 ft 451 kts 30°
2026-05-05 23:45 -11.74586 -34.46343 31051 ft 450 kts 30°
2026-05-05 23:45 -11.69307 -34.42860 31051 ft 451 kts 30°
2026-05-05 23:46 -11.64037 -34.39384 31050 ft 451 kts 30°
2026-05-05 23:46 -11.58760 -34.35904 31052 ft 451 kts 30°
2026-05-05 23:47 -11.53484 -34.32428 31047 ft 451 kts 30°
2026-05-05 23:47 -11.48188 -34.28939 31050 ft 451 kts 30°
2026-05-05 23:48 -11.42945 -34.25487 31051 ft 450 kts 30°
2026-05-05 23:48 -11.37660 -34.22010 31043 ft 450 kts 30°
2026-05-05 23:49 -11.32391 -34.18545 31041 ft 452 kts 30°
2026-05-05 23:49 -11.27112 -34.15075 31048 ft 451 kts 30°
2026-05-05 23:50 -11.21843 -34.11612 31044 ft 451 kts 30°
2026-05-05 23:50 -11.16579 -34.08155 31051 ft 450 kts 30°
2026-05-05 23:51 -11.11295 -34.04685 31046 ft 450 kts 30°
2026-05-05 23:51 -11.06055 -34.01246 31046 ft 450 kts 30°
2026-05-05 23:52 -11.00749 -33.97765 31047 ft 453 kts 30°
2026-05-05 23:52 -10.95444 -33.94287 31044 ft 451 kts 30°
2026-05-05 23:53 -10.90178 -33.90835 31040 ft 449 kts 30°
2026-05-05 23:53 -10.84905 -33.87380 31048 ft 450 kts 30°
2026-05-05 23:54 -10.79642 -33.83934 31042 ft 450 kts 30°
2026-05-05 23:54 -10.74392 -33.80497 31041 ft 448 kts 30°
2026-05-05 23:55 -10.69164 -33.77077 31043 ft 449 kts 30°
2026-05-05 23:55 -10.64012 -33.73707 31043 ft 449 kts 30°
2026-05-05 23:56 -10.58775 -33.70282 31039 ft 449 kts 30°
2026-05-05 23:56 -10.53540 -33.66861 31041 ft 448 kts 30°
2026-05-05 23:57 -10.48271 -33.63420 31042 ft 448 kts 30°
2026-05-05 23:57 -10.43033 -33.60000 31034 ft 447 kts 30°
2026-05-05 23:58 -10.37782 -33.56572 31033 ft 448 kts 30°
2026-05-05 23:58 -10.32546 -33.53156 31030 ft 447 kts 30°
2026-05-05 23:59 -10.27311 -33.49741 31033 ft 446 kts 30°
2026-05-05 23:59 -10.22065 -33.46321 31030 ft 445 kts 30°
2026-05-06 00:00 -10.16874 -33.42939 31031 ft 446 kts 30°
2026-05-06 00:00 -10.11630 -33.39523 31029 ft 447 kts 30°
2026-05-06 00:01 -10.06399 -33.36117 31027 ft 446 kts 31°
2026-05-06 00:01 -10.01166 -33.32711 31020 ft 445 kts 30°
2026-05-06 00:02 -9.95951 -33.29317 31026 ft 445 kts 30°
2026-05-06 00:02 -9.90733 -33.25924 31027 ft 446 kts 31°
2026-05-06 00:03 -9.85489 -33.22514 31036 ft 448 kts 31°
2026-05-06 00:03 -9.80242 -33.19104 31035 ft 449 kts 31°
2026-05-06 00:04 -9.74988 -33.15691 31028 ft 448 kts 31°
2026-05-06 00:04 -9.69705 -33.12260 31032 ft 449 kts 31°
2026-05-06 00:05 -9.61812 -33.07137 31027 ft 450 kts 31°
2026-05-06 00:06 -9.56542 -33.03719 31025 ft 450 kts 31°
2026-05-06 00:06 -9.51228 -33.00271 31026 ft 451 kts 31°
2026-05-06 00:07 -9.45960 -32.96856 31020 ft 449 kts 31°
2026-05-06 00:07 -9.40685 -32.93437 31025 ft 449 kts 31°
2026-05-06 00:08 -9.35417 -32.90025 31029 ft 452 kts 31°
2026-05-06 00:08 -9.30107 -32.86586 31025 ft 451 kts 31°
2026-05-06 00:09 -9.24820 -32.83163 31027 ft 453 kts 31°
2026-05-06 00:09 -9.19492 -32.79716 31022 ft 452 kts 31°
2026-05-06 00:10 -9.14210 -32.76299 31021 ft 451 kts 31°
2026-05-06 00:10 -9.08886 -32.72856 31021 ft 452 kts 31°
2026-05-06 00:11 -9.03589 -32.69432 31022 ft 452 kts 31°
2026-05-06 00:11 -8.98315 -32.66024 31020 ft 451 kts 31°
2026-05-06 00:12 -8.92991 -32.62585 31018 ft 453 kts 31°
2026-05-06 00:12 -8.87676 -32.59152 31019 ft 454 kts 31°
2026-05-06 00:13 -8.82327 -32.55699 31008 ft 453 kts 31°
2026-05-06 00:13 -8.77003 -32.52264 31001 ft 453 kts 31°
2026-05-06 00:14 -8.71693 -32.48839 31002 ft 453 kts 31°
2026-05-06 00:14 -8.66394 -32.45422 30996 ft 453 kts 31°
2026-05-06 00:15 -8.61079 -32.41995 30996 ft 454 kts 31°
2026-05-06 00:15 -8.55726 -32.38546 30997 ft 455 kts 31°
2026-05-06 00:16 -8.50394 -32.35111 30999 ft 454 kts 31°
2026-05-06 00:16 -8.45045 -32.31665 31000 ft 454 kts 31°
2026-05-06 00:17 -8.39726 -32.28242 31000 ft 453 kts 31°
2026-05-06 00:17 -8.34412 -32.24822 30994 ft 454 kts 31°
2026-05-06 00:18 -8.29073 -32.21388 30993 ft 454 kts 31°
2026-05-06 00:18 -8.23730 -32.17951 30994 ft 454 kts 31°
2026-05-06 00:19 -8.18405 -32.14527 30993 ft 455 kts 31°
2026-05-06 00:19 -8.13035 -32.11075 30991 ft 455 kts 31°
2026-05-06 00:20 -8.07720 -32.07660 30989 ft 454 kts 31°
2026-05-06 00:20 -8.02376 -32.04227 30990 ft 453 kts 31°
2026-05-06 00:21 -7.97053 -32.00810 31001 ft 454 kts 31°
2026-05-06 00:21 -7.91707 -31.97378 31000 ft 455 kts 31°
2026-05-06 00:22 -7.86337 -31.93932 31002 ft 455 kts 31°
2026-05-06 00:22 -7.80989 -31.90501 30999 ft 455 kts 31°
2026-05-06 00:23 -7.75657 -31.87081 31001 ft 455 kts 31°
2026-05-06 00:23 -7.70335 -31.83669 30999 ft 455 kts 31°
2026-05-06 00:24 -7.64974 -31.80234 30997 ft 455 kts 31°
2026-05-06 00:24 -7.59616 -31.76800 30997 ft 456 kts 31°
2026-05-06 00:25 -7.54274 -31.73378 30998 ft 455 kts 31°
2026-05-06 00:25 -7.48915 -31.69946 30995 ft 455 kts 31°
2026-05-06 00:26 -7.43546 -31.66510 30994 ft 455 kts 31°
2026-05-06 00:26 -7.38205 -31.63092 30993 ft 455 kts 31°
2026-05-06 00:27 -7.32861 -31.59673 30990 ft 455 kts 31°
2026-05-06 00:27 -7.27501 -31.56244 30990 ft 456 kts 31°
2026-05-06 00:28 -7.22128 -31.52809 30990 ft 456 kts 31°
2026-05-06 00:28 -7.16763 -31.49379 30992 ft 456 kts 31°
2026-05-06 00:29 -7.11429 -31.45970 30996 ft 455 kts 31°
2026-05-06 00:29 -7.06082 -31.42554 30997 ft 455 kts 31°
2026-05-06 00:30 -7.00704 -31.39119 30996 ft 456 kts 31°
2026-05-06 00:30 -6.95346 -31.35698 30996 ft 456 kts 31°
2026-05-06 00:31 -6.89963 -31.32262 30990 ft 457 kts 31°
2026-05-06 00:31 -6.84612 -31.28846 30994 ft 457 kts 30°
2026-05-06 00:32 -6.79231 -31.25414 30991 ft 456 kts 31°
2026-05-06 00:32 -6.73865 -31.21991 30990 ft 456 kts 31°
2026-05-06 00:33 -6.68511 -31.18576 30992 ft 456 kts 30°
2026-05-06 00:33 -6.63157 -31.15164 30989 ft 456 kts 31°
2026-05-06 00:34 -6.57768 -31.11729 30990 ft 457 kts 31°
2026-05-06 00:34 -6.52378 -31.08294 30987 ft 457 kts 31°